Palacios, TX

1:39 PM CDT on April 24, 2017 (GMT -0500)
Palacios Municipal

Weather History for KPSX - February, 2014

Change the Weather History Date:

Friday, February 28, 2014

  Actual Average Record
Temperature  
Mean Temperature 58 °F -  
Max Temperature 68 °F 69 °F 83 °F (1948)
Min Temperature 48 °F 50 °F 32 °F (1962)
Degree Days  
Heating Degree Days 7    
Growing Degree Days 8 (Base 50)    
Moisture  
Dew Point 58 °F    
Average Humidity 87    
Maximum Humidity 97    
Minimum Humidity 78    
Precipitation  
Precipitation 0.00 in - - ()
Sea Level Pressure  
Sea Level Pressure 29.90 in    
Wind  
Wind Speed 8 mph (South)    
Max Wind Speed 15 mph    
Max Gust Speed -    
Visibility 9 miles    
Events      
Averages and records for this station are not official NWS values.
T = Trace of Precipitation, MM = Missing Value Source: NWS Daily Summary

Daily Weather History Graph

Daily Weather History Graph

Search for Another Location

Airport or City:

Trip Planner

Search our weather history database for the weather conditions in past years. The results will help you decide how hot, cold, wet, or windy it might be!

Date:

Astronomy

Feb. 28, 2014 Rise Set
Actual Time 6:51 AM CST 6:24 PM CST
Civil Twilight 6:27 AM CST 6:48 PM CST
Nautical Twilight 5:59 AM CST 7:15 PM CST
Astronomical Twilight 5:32 AM CST 7:42 PM CST
Moon 6:05 AM CST (2/28) 6:00 PM CST (2/28)
Length of Visible Light 12h 20m
Length of Day
11h 33m
Waning Crescent, 1% of the Moon is Illuminated
Feb 28
Waning Crescent
Mar 1
New
Mar 8
First Quarter
Mar 16
Full
Mar 23
Last Quarter

Hourly Weather History & Observations

Time (CST) Temp. Dew Point Humidity Pressure Visibility Wind Dir Wind Speed Gust Speed Precip Events Conditions
12:53 AM 48.9 °F 45.0 °F 86% 29.97 in 10.0 mi SSE 6.9 mph - N/A   Clear
1:53 AM 52.0 °F 48.9 °F 89% 29.95 in 10.0 mi SSE 6.9 mph - N/A   Scattered Clouds
2:01 AM 54.0 °F 50.0 °F 86% 29.95 in 10.0 mi South 5.8 mph - N/A   Mostly Cloudy
2:53 AM 55.9 °F 52.0 °F 87% 29.93 in 10.0 mi SSE 5.8 mph - N/A   Overcast
3:53 AM 55.9 °F 52.0 °F 87% 29.91 in 10.0 mi SSE 5.8 mph - N/A   Overcast
4:53 AM 57.0 °F 53.1 °F 87% 29.89 in 10.0 mi SSE 6.9 mph - N/A   Overcast
5:53 AM 57.9 °F 54.0 °F 87% 29.89 in 10.0 mi SSE 6.9 mph - N/A   Overcast
6:53 AM 57.9 °F 55.0 °F 90% 29.90 in 10.0 mi SSE 3.5 mph - N/A   Overcast
7:53 AM 59.0 °F 55.9 °F 90% 29.90 in 10.0 mi SE 5.8 mph - N/A   Overcast
8:53 AM 62.1 °F 57.0 °F 84% 29.92 in 10.0 mi SSE 8.1 mph - N/A   Overcast
9:53 AM 62.1 °F 57.9 °F 86% 29.95 in 10.0 mi South 5.8 mph - N/A   Overcast
10:53 AM 64.0 °F 57.9 °F 80% 29.95 in 10.0 mi SSW 8.1 mph - N/A   Overcast
11:45 AM 64.0 °F 59.0 °F 84% 29.94 in 10.0 mi South 8.1 mph - N/A   Overcast
11:53 AM 64.9 °F 59.0 °F 81% 29.94 in 10.0 mi SSW 8.1 mph - N/A   Overcast
12:35 PM 64.9 °F 59.0 °F 81% 29.93 in 10.0 mi SSW 8.1 mph - N/A   Overcast
12:53 PM 64.9 °F 60.1 °F 84% 29.92 in 10.0 mi SSW 10.4 mph - N/A   Overcast
1:39 PM 66.9 °F 61.0 °F 81% 29.88 in 10.0 mi South 13.8 mph - N/A   Overcast
1:53 PM 66.9 °F 61.0 °F 81% 29.88 in 10.0 mi SSW 13.8 mph - N/A   Mostly Cloudy
2:41 PM 66.9 °F 61.0 °F 81% 29.86 in 10.0 mi SSW 15.0 mph - N/A   Overcast
2:53 PM 68.0 °F 61.0 °F 78% 29.86 in 10.0 mi South 15.0 mph - N/A   Mostly Cloudy
3:03 PM 68.0 °F 61.0 °F 78% 29.86 in 10.0 mi South 15.0 mph - N/A   Partly Cloudy
3:46 PM 66.9 °F 61.0 °F 81% 29.86 in 10.0 mi South 13.8 mph - N/A   Mostly Cloudy
3:53 PM 68.0 °F 62.1 °F 81% 29.86 in 10.0 mi South 12.7 mph - N/A   Scattered Clouds
4:53 PM 66.9 °F 62.1 °F 84% 29.85 in 10.0 mi South 9.2 mph - N/A   Clear
5:53 PM 66.0 °F 62.1 °F 87% 29.84 in 10.0 mi South 10.4 mph - N/A   Clear
6:53 PM 64.0 °F 62.1 °F 93% 29.85 in 9.0 mi South 11.5 mph - N/A   Clear
7:53 PM 63.0 °F 62.1 °F 97% 29.86 in 8.0 mi South 11.5 mph - N/A   Clear
8:53 PM 63.0 °F 62.1 °F 97% 29.88 in 7.0 mi South 11.5 mph - N/A   Clear
9:53 PM 63.0 °F 61.0 °F 93% 29.89 in 7.0 mi South 9.2 mph - N/A   Clear
10:15 PM 63.0 °F 61.0 °F 93% 29.89 in 7.0 mi South 9.2 mph - N/A   Scattered Clouds
10:34 PM 63.0 °F 61.0 °F 93% 29.90 in 6.0 mi South 6.9 mph - N/A   Overcast
10:53 PM 63.0 °F 62.1 °F 97% 29.91 in 6.0 mi South 9.2 mph - N/A   Overcast
11:33 PM 63.0 °F 62.1 °F 97% 29.91 in 5.0 mi South 9.2 mph - N/A   Overcast
11:53 PM 63.0 °F 62.1 °F 97% 29.91 in 5.0 mi South 8.1 mph - N/A   Overcast